Home > Weather > Spydeberg > Past weeks

Flag for Norway Past Weather in Spydeberg, Norway — Yesterday and Last 2 Weeks

Now
57 °F

Cool.


Feels Like: 55 °F
Forecast: 53 / 67 °F
Wind: 8 mph from Southwest

Location: Rygge

Current Time: Jul 31, 2016 at 2:35:59 AM

Latest Report: Jul 31, 2016 at 1:50 AM


Visibility: N/A

Pressure: 29.65 "Hg

Humidity: 72%

Dew Point: 48 °F

Location of SpydebergLocation

Past Weather in Spydeberg — Graph

°F

Spydeberg Temperature Yesterday

Maximum temperature yesterday: 68 °F (at 3:50 PM)
Minimum temperature yesterday: 55 °F (at 5:20 AM)
Average temperature yesterday: 63 °F

High & Low Weather Summary for the Past Weeks

 TemperatureHumidityPressure
High79 °F (Jul 21, 2:20 PM)100% (Jul 16, 1:20 AM)30.15 "Hg (Jul 16, 1:20 AM)
Low52 °F (Jul 17, 3:50 AM)46% (Jul 16, 7:20 PM)29.62 "Hg (Jul 30, 6:50 PM)
Average65 °F76%29.95 "Hg
* Reported Jul 16 12:20 AM — Jul 31 12:50 AM, Spydeberg, Weather by CustomWeather, © 2016

Note: Actual official high and low records may vary slightly from our data, if they occured in-between our weather recording intervals... More about our weather records

Advertising

Spydeberg Weather History for the Previous 24 Hours

Scroll right to see more
 ConditionsComfort  
Time TempWeatherWind HumidityBarometerVisibility
12:50 AM
Sun, Jul 31
59 °FClear.8 mph68%29.65 "Hg10 mi
11:50 PM
Sat, Jul 30
61 °FClear.9 mph63%29.65 "Hg10 mi
11:20 PM63 °FClear.10 mph56%29.65 "Hg10 mi
10:50 PM63 °FClear.9 mph59%29.65 "Hg10 mi
10:20 PM64 °FSunny.9 mph52%29.65 "Hg10 mi
9:50 PM64 °FSunny.8 mph52%29.62 "Hg10 mi
9:20 PM66 °FSunny.9 mph49%29.62 "Hg10 mi
8:50 PM66 °FPassing clouds.7 mph52%29.62 "HgN/A
8:20 PM66 °FPassing clouds.10 mph60%29.62 "HgN/A
7:50 PM68 °FSunny.9 mph53%29.62 "Hg10 mi
7:20 PM68 °FSunny.13 mph60%29.62 "Hg10 mi
6:50 PM68 °FSunny.14 mph64%29.62 "Hg10 mi
6:20 PM68 °FSunny.16 mph64%29.65 "Hg10 mi
5:50 PM68 °FSunny.15 mph60%29.65 "Hg10 mi
5:20 PM68 °FSunny.16 mph64%29.65 "Hg10 mi
4:50 PM66 °FScattered clouds.12 mph64%29.65 "HgN/A
4:20 PM66 °FScattered clouds.12 mph68%29.65 "HgN/A
3:50 PM68 °FScattered showers. Scattered clouds.15 mph64%29.65 "HgN/A
3:20 PM66 °FScattered clouds.13 mph73%29.65 "HgN/A
2:50 PM66 °FScattered clouds.14 mph73%29.65 "HgN/A
2:20 PM66 °FScattered clouds.12 mph73%29.65 "HgN/A
1:50 PM66 °FScattered clouds.12 mph73%29.65 "HgN/A
1:20 PM66 °FScattered clouds.8 mph68%29.65 "HgN/A
12:50 PM66 °FScattered clouds.9 mph68%29.65 "HgN/A
12:20 PM66 °FScattered clouds.8 mph68%29.65 "HgN/A
11:50 AM66 °FScattered clouds.7 mph68%29.65 "HgN/A
11:20 AM64 °FPartly sunny.8 mph68%29.65 "HgN/A
10:50 AM64 °FScattered clouds.8 mph73%29.65 "HgN/A
10:20 AM64 °FScattered clouds.9 mph73%29.65 "HgN/A
9:50 AM64 °FScattered clouds.9 mph73%29.65 "HgN/A
9:20 AM63 °FScattered clouds.7 mph77%29.65 "HgN/A
8:50 AM63 °FScattered clouds.7 mph77%29.65 "HgN/A
8:20 AM61 °FScattered clouds.5 mph88%29.65 "HgN/A
7:50 AM59 °FScattered clouds.2 mph88%29.65 "HgN/A
7:20 AM57 °FScattered clouds.3 mph94%29.65 "HgN/A
6:50 AM55 °FScattered clouds.2 mph94%29.65 "HgN/A
6:20 AM55 °FScattered clouds.3 mph100%29.65 "HgN/A
5:50 AM55 °FPassing clouds.2 mph100%29.65 "HgN/A
5:20 AM55 °FPassing clouds.3 mph100%29.65 "Hg1 mi
4:50 AM57 °FPassing clouds.3 mph94%29.65 "HgN/A
4:20 AM57 °FMostly cloudy.3 mph94%29.68 "HgN/A
3:50 AM57 °FMostly cloudy.3 mph100%29.68 "HgN/A
3:20 AM59 °FLight rain. Overcast.5 mph94%29.68 "Hg4 mi
2:50 AM59 °FPartly cloudy.6 mph88%29.68 "HgN/A
2:20 AM59 °FDrizzle. Overcast.6 mph94%29.68 "HgN/A
Weather by CustomWeather, © 2016

See weather overviewHow to use our weather pages